"Pseudo-MPEC" for P113o4T

Created 2020 Aug 4 2:07:11 UT using Find_Orb

Click here for an explanation of pseudo-MPECs

 
 Astrometry: 
     P113o4T  C2020 07 30o=q@etc[8`gDTkRX]\I.knhOBM=0`(%WSyCNb$@b?-`sR9+iuUwAF51
     P113o4T  C2020 07 30IeJElgUSI40W3-+uf%8+fxXrkdbgs_bB%2BqSQ$#fiZSv?)DuG0sF51
     P113o4T  C2020 07 30Z(exD,q*nm/Z5Z3g_j-N$:$wCuAv+lVh1T2=KpesYEb:2)S#6['+F51
     P113o4T  C2020 07 30_%N4G1`mg($BnuGe:tx_]8KfkNW0bfijik1)^S1bOZ7PEQKwj.6NF51
     P113o4T KC2020 07 31[D+bTm(C8\g)HJh!\**pBZ;M_lrG(4v2'ZAObgx+JFAstrometryL01
     P113o4T KC2020 07 3108!Fw_s@WF%#M,,#$s^^:3XTx%yNqTtn:6redacted;g4Gh9J`@0L01
     P113o4T KC2020 07 31Gw4@\L4ILlX%d7Xl.2fWLVx:W@.('Nl([Hb-6e4\CmGZKmC7ZTjRL01
     P113o4T KC2020 07 31XHsf*Tov\u1^7sta0FT1ZY%#p_14)dGQ735E(f'Ww?npmqW#qe5QL01
     P113o4T  C2020 07 31x:/oSt]\^click*hOr#tTiU2ANkAQIyHh4Tg(=6[7MqP2_Y*=T^`F51
     P113o4T  C2020 07 31cp'8Qs3(v2+_+(Vu=mI5w[NWeEe#,NNg@%:T-j@8/AQn#-jAU90RF51
     P113o4T  C2020 07 31N^/9^tj#D1CIQ1JL#3mU(JLkhereK?!$m:g`xbVB?!SJ3n[8t_KAF51
     P113o4T  C2020 07 31n-k0Y]\R8:ER'+PCbrb=%gmMI+GbWhVY@RpV*/p*;R5luQ^nx=6lF51
     P113o4T  C2020 08 01j9Q7!bY1'lQY=.cXmA0]g,h`D7^aM*+@\vAxU,%!]^EDXI@h`-N)F52
     P113o4T  C2020 08 01GL@,3Gjrgnb%#n*%+CCQyB/HbQcIlKRf1@g!8T\apadEiIhgTgc=F51
     P113o4T  C2020 08 01j%o-(OSS[?dUfor,@H:/dcM(.qQQ^`r!#LI.U7uF[nuW9?+A(MY:F51
     P113o4T  C2020 08 013+;6HA=K)r(Ec#0_X4)6NuI*Qv=k/I`K[=vd5$dy\jcupA/S17V,F52
     P113o4T  C2020 08 01a`]7X(G'B!R#(B--,`CvIlk'?VcZexplanationpFqN)r/Ksa)7jF51
     P113o4T  C2020 08 01KyQW_tS/lysSVl/?LZ@x.#prNDY1[#\4.9t\F)N]HS9:=3AQS?9VF52
     P113o4T  C2020 08 01i1^3EpIHR]1FWmF`BwD.78%$YVWxo3h'KULA$NNb9N?-NZ)OW'7HF51

Station data:
(F51) Pan-STARRS 1, Haleakala  (N20.707235 W156.255910)  US/Hawaii.
   Observers N. Primak, A. Schultz, S. Watters, J. Thiel, T. Goggia. Measurer
   PS1 Science Consortium. 1.8-m Ritchey-Chrétien + CCD.
(F52) Pan-STARRS 2, Haleakala  (N20.707384 W156.255910)  US/Hawaii. 1.8-m
   Ritchey-Chrétien + CCD.
(L01) Višnjan Observatory, Tičan  (N45.290900 E13.749300)  Croatia.
   Observers K. Korlević, E. Pettarin. Measurer E. Pettarin. 1.0-m f/2.9
   reflector + CCD.

Orbital elements:  P113o4T
   Perihelion 2020 Jun 7.726027 +/- 0.407 TT = 17:25:28 (JD 2459008.226027)
Epoch 2020 Aug  1.0 TT = JDT 2459062.5   Earth MOID: 0.0520   Ve: 0.0274
M  23.68661935 +/- 1.4              Ma: 0.0691                AutoNEOCP
n   0.43642685 +/- 0.023            Peri.  290.31357 +/- 1.4
a   1.72132048 +/- 0.0604           Node   316.88010 +/- 0.40
e   0.6834263 +/- 0.00798           Incl.   12.75557 +/- 0.11
P   2.26/824.86d           H 19.9   G  0.15   U 10.2  
q 0.54492473 +/- 0.00801    Q 2.89771622 +/- 0.111
From 19 observations 2020 July 30-Aug. 1; mean residual 0".09
Residuals in arcseconds: 
200730 F51  .04-  .05+    200731 L01  .25-  .22-    200801 F51  .06+  .02+    
200730 F51  .07-  .02-    200731 F51  .03-  .05-    200801 F52  .07+  .04+    
200730 F51  .14+  .04-    200731 F51  .10+  .00     200801 F51  .03+  .03-    
200730 F51  .05+  .00     200731 F51  .07+  .03+    200801 F52  .01-  .02+    
200731 L01  .18+  .22+    200731 F51  .04+  .05+    200801 F51  .07-  .05+    
200731 L01  .08+  .06-    200801 F52  .11-  .10-    
200731 L01  .15-  .06+    200801 F51  .03+  .01+    

Ephemerides (geocentric):
Date (UTC) HH   RA              Dec         delta   r     elong  mag " sig PA
---- -- -- --  -------------   -----------  ------ ------ -----  --- ---- ---
2020 08 04 02  03 19 09.529   +29 47 00.49  .72185 1.1044  77.0 21.7 2.12  79
2020 08 04 03  03 19 08.440   +29 47 43.58  .72195 1.1049  77.0 21.7 2.18  79
2020 08 04 04  03 19 07.349   +29 48 26.66  .72205 1.1054  77.0 21.7 2.23  79
2020 08 04 05  03 19 06.256   +29 49 09.72  .72215 1.1059  77.1 21.7 2.29  79
2020 08 04 06  03 19 05.161   +29 49 52.76  .72225 1.1064  77.1 21.7 2.35  79
2020 08 04 07  03 19 04.063   +29 50 35.78  .72235 1.1069  77.2 21.7 2.41  79
2020 08 04 08  03 19 02.963   +29 51 18.79  .72245 1.1074  77.2 21.7 2.46  79
2020 08 04 09  03 19 01.860   +29 52 01.77  .72255 1.1079  77.2 21.7 2.52  79
2020 08 04 10  03 19 00.755   +29 52 44.73  .72265 1.1084  77.3 21.7 2.58  79
2020 08 04 11  03 18 59.648   +29 53 27.68  .72275 1.1089  77.3 21.7 2.64  79
2020 08 04 12  03 18 58.539   +29 54 10.60  .72285 1.1094  77.4 21.7 2.70  79
2020 08 04 13  03 18 57.427   +29 54 53.51  .72295 1.1099  77.4 21.7 2.76  79
2020 08 04 14  03 18 56.313   +29 55 36.39  .72305 1.1104  77.4 21.7 2.82  79
2020 08 04 15  03 18 55.196   +29 56 19.26  .72315 1.1109  77.5 21.7 2.89  79
2020 08 04 16  03 18 54.077   +29 57 02.11  .72324 1.1114  77.5 21.7 2.95  79
2020 08 04 17  03 18 52.956   +29 57 44.94  .72334 1.1118  77.6 21.7 3.01  79
2020 08 04 18  03 18 51.832   +29 58 27.75  .72344 1.1123  77.6 21.7 3.08  79
2020 08 04 19  03 18 50.706   +29 59 10.54  .72354 1.1128  77.6 21.7 3.14  79
2020 08 04 20  03 18 49.577   +29 59 53.31  .72363 1.1133  77.7 21.7 3.21  79
2020 08 04 21  03 18 48.446   +30 00 36.06  .72373 1.1138  77.7 21.7 3.27  79
2020 08 04 22  03 18 47.313   +30 01 18.79  .72383 1.1143  77.8 21.7 3.34  79
2020 08 04 23  03 18 46.177   +30 02 01.51  .72392 1.1148  77.8 21.7 3.40  79
2020 08 05 00  03 18 45.038   +30 02 44.20  .72402 1.1153  77.8 21.7 3.47  79
2020 08 05 01  03 18 43.897   +30 03 26.88  .72411 1.1158  77.9 21.7 3.54  79
2020 08 05 02  03 18 42.753   +30 04 09.53  .72421 1.1163  77.9 21.7 3.61  79
2020 08 05 03  03 18 41.607   +30 04 52.17  .72430 1.1168  78.0 21.7 3.68  79
2020 08 05 04  03 18 40.459   +30 05 34.79  .72440 1.1173  78.0 21.7 3.74  79
2020 08 05 05  03 18 39.307   +30 06 17.38  .72449 1.1178  78.0 21.7 3.81  79
2020 08 05 06  03 18 38.154   +30 06 59.96  .72459 1.1183  78.1 21.7 3.88  79
2020 08 05 07  03 18 36.997   +30 07 42.52  .72468 1.1188  78.1 21.7 3.96  79
2020 08 05 08  03 18 35.839   +30 08 25.06  .72478 1.1193  78.2 21.7 4.03  79
2020 08 05 09  03 18 34.677   +30 09 07.59  .72487 1.1197  78.2 21.7 4.10  79
2020 08 05 10  03 18 33.513   +30 09 50.09  .72496 1.1202  78.2 21.7 4.17  79
2020 08 05 11  03 18 32.346   +30 10 32.57  .72506 1.1207  78.3 21.7 4.24  79
2020 08 05 12  03 18 31.177   +30 11 15.03  .72515 1.1212  78.3 21.7 4.32  79
2020 08 05 13  03 18 30.005   +30 11 57.48  .72524 1.1217  78.4 21.7 4.39  79
2020 08 05 14  03 18 28.830   +30 12 39.90  .72533 1.1222  78.4 21.7 4.47  79
2020 08 05 15  03 18 27.653   +30 13 22.31  .72542 1.1227  78.5 21.7 4.54  79
2020 08 05 16  03 18 26.473   +30 14 04.70  .72552 1.1232  78.5 21.7 4.62  78
2020 08 05 17  03 18 25.290   +30 14 47.06  .72561 1.1237  78.5 21.7 4.69  78
2020 08 05 18  03 18 24.105   +30 15 29.41  .72570 1.1242  78.6 21.7 4.77  78
2020 08 05 19  03 18 22.917   +30 16 11.74  .72579 1.1247  78.6 21.7 4.85  78
2020 08 05 20  03 18 21.726   +30 16 54.05  .72588 1.1252  78.7 21.7 4.93  78
2020 08 05 21  03 18 20.533   +30 17 36.34  .72597 1.1257  78.7 21.7 5.00  78
2020 08 05 22  03 18 19.336   +30 18 18.61  .72606 1.1262  78.7 21.7 5.08  78
2020 08 05 23  03 18 18.137   +30 19 00.87  .72615 1.1266  78.8 21.7 5.16  78
2020 08 06 00  03 18 16.935   +30 19 43.10  .72624 1.1271  78.8 21.7 5.24  78
2020 08 06 01  03 18 15.731   +30 20 25.31  .72633 1.1276  78.9 21.7 5.32  78